Flag for Germany Weather past 2 weeks in Lübbecke, North Rhine-Westphalia, Germany

Now
41 °F

Low clouds.


Feels Like: 39 °F
Forecast: 40 / 59 °F
Wind: 3 mph from West

Location: Bueckeburg

Current Time: Apr 19, 2015 at 6:02:02 AM

Latest Report: Apr 19, 2015 at 5:20 AM


Visibility: N/A

Pressure: 30.21 "Hg

Humidity: 87%

Dew point: 37 °F

Location of LübbeckeLocation

Historic Weather in Lübbecke — Graph

°F

Lübbecke temperature yesterday

Maximum temperature yesterday: 55 °F (at 5:20 PM)
Minimum temperature yesterday: 34 °F (at 5:20 AM)
Average temperature yesterday: 46 °F

Past Weeks' High & Low Weather Summary

 TemperatureHumidityPressure
High73 °F (Apr 15, 3:20 PM)100% (Apr 5, 3:20 AM)30.60 "Hg (Apr 5, 3:20 AM)
Low28 °F (Apr 5, 6:20 AM)33% (Apr 6, 5:20 PM)29.89 "Hg (Apr 15, 6:20 PM)
Average48 °F67%30.24 "Hg
* Reported Apr 4 4:20 AM — Apr 19 4:20 AM, Lübbecke, Weather by CustomWeather, © 2015

Note: Actual official high and low records may vary slightly from our data, if they occured in-between our weather recording intervals... More about our weather records

Advertising

Lübbecke weather history for previous 24 hours

 ConditionsComfort  
Time TempWeatherWind HumidityBarometerVisibility
4:20 AM
Sun, Apr 19
41 °FLow clouds.2 mph87%30.21 "Hg6 mi
3:20 AM41 °FLow clouds.2 mph87%30.21 "HgN/A
2:20 AM39 °FPassing clouds.1 mph87%30.24 "HgN/A
1:20 AM39 °FPassing clouds.No wind81%30.27 "HgN/A
12:20 AM39 °FPassing clouds.No wind75%30.24 "HgN/A
11:20 PM
Sat, Apr 18
41 °FPassing clouds.1 mph76%30.27 "HgN/A
10:20 PM43 °FPassing clouds.2 mph71%30.27 "HgN/A
9:20 PM50 °FPartly sunny.6 mph50%30.27 "HgN/A
8:20 PM52 °FPassing clouds.No wind41%30.24 "HgN/A
7:20 PM54 °FScattered clouds.3 mph38%30.24 "HgN/A
6:20 PM55 °FPassing clouds.6 mph38%30.27 "HgN/A
5:20 PM55 °FPassing clouds.8 mph36%30.27 "HgN/A
4:20 PM54 °FPassing clouds.5 mph38%30.30 "HgN/A
3:20 PM54 °FPassing clouds.3 mph38%30.30 "HgN/A
2:20 PM52 °FPassing clouds.5 mph44%30.33 "HgN/A
1:20 PM52 °FPassing clouds.5 mph44%30.33 "HgN/A
12:20 PM50 °FPassing clouds.3 mph54%30.33 "HgN/A
11:20 AM48 °FPassing clouds.2 mph62%30.36 "HgN/A
10:20 AM46 °FPassing clouds.3 mph71%30.33 "HgN/A
9:20 AM45 °FPassing clouds.2 mph71%30.33 "HgN/A
8:20 AM39 °FFog.1 mph93%30.33 "HgN/A
7:20 AM36 °FFog.1 mph93%30.30 "HgN/A
6:20 AM34 °FFog.1 mph93%30.27 "HgN/A
Weather by CustomWeather, © 2015

See weather overviewHow to use our weather pages